Theta_e
297 298 298 298 298 299 299 300 302 303 303 304 304 305 306 305 306 310 312 312 310 310 309 308 307 308 306 307 308 307 304 303 296 293 295 296 297 297 297 299 300 300 299
296 297 297 298 298 298 299 301 302 303 303 303 304 305 305 306 307 312 311 311 310 309 308 308 308 308 308 308 308 306 306 304 299 293 293 294 296 297 296 296 295 296 298
296 297 297 297 297 299 300 301 301 302 302 303 304 305 306 306 307 311 313 312 312 310 311 310 309 309 307 308 307 304 301 299 298 296 292 294 294 294 293 294 294 294 294
295 296 296 297 298 300 300 300 302 301 302 304 304 305 307 306 309 312 311 312 312 312 313 311 310 310 309 307 303 301 299 297 297 295 294 293 293 291 293 291 290 290 289
294 295 296 297 298 300 300 299 300 303 302 305 304 306 306 306 310 311 312 310 309 308 311 311 312 301 298 302 302 299 298 296 295 295 295 293 291 290 292 291 289 288 287
294 295 296 297 299 298 298 299 300 301 302 303 303 302 302 302 298 301 308 308 306 304 301 299 297 294 294 294 294 295 298 297 295 294 296 296 294 293 292 292 289 288 287
293 293 295 297 298 297 297 298 299 299 299 299 298 298 298 299 296 297 298 306 305 303 300 297 295 293 293 294 292 292 290 292 295 300 298 297 294 294 292 287 287 290 287
293 293 294 297 295 294 293 298 298 297 296 296 296 296 296 295 295 295 295 300 297 297 296 297 295 294 294 293 291 290 290 291 292 294 295 294 295 295 296 295 289 286 287
292 293 294 297 294 293 294 297 297 296 294 294 294 294 294 294 293 294 296 295 293 291 292 293 294 292 291 291 289 286 285 286 289 290 290 290 291 291 293 289 286 286 285
291 292 294 296 295 294 293 292 291 291 288 288 288 289 288 293 293 294 295 293 289 288 288 288 288 291 291 291 288 287 285 284 285 285 286 286 287 286 287 292 290 285 285
291 290 293 294 294 294 292 291 290 289 287 287 286 287 288 289 292 293 293 292 289 288 287 287 287 290 290 291 291 289 287 285 285 284 285 285 285 284 284 284 285 287 285
290 289 290 290 291 290 289 288 287 288 287 286 286 285 286 287 289 291 292 292 292 288 286 286 287 289 289 289 288 287 286 285 285 285 285 284 283 282 282 280 279 280 281
288 287 288 288 287 288 288 287 287 287 288 287 286 285 285 285 288 290 290 290 289 286 286 288 288 288 288 287 286 285 284 286 285 285 283 282 282 281 281 281 280 279 280
287 288 288 287 287 287 287 288 288 288 288 287 287 286 285 285 285 286 286 287 286 287 286 285 285 285 285 284 283 284 286 287 286 284 283 281 282 282 281 283 281 280 277
287 288 287 288 287 287 287 288 289 288 290 289 289 288 287 285 286 287 287 286 286 285 285 285 285 285 284 283 283 283 283 284 283 283 282 282 282 281 280 280 279 281 278
287 287 288 288 287 287 287 286 289 289 289 289 290 290 287 289 288 288 287 287 286 286 286 285 285 285 284 283 283 282 283 283 283 283 283 282 282 280 277 276 279 279 276
288 288 288 288 288 287 287 287 285 287 289 289 288 288 288 288 288 287 287 287 286 286 286 285 285 285 284 283 283 282 280 282 282 282 282 280 279 276 276 275 275 276 275
287 287 289 289 289 288 287 287 287 286 285 285 288 288 288 288 288 288 287 286 284 285 286 285 284 284 283 283 283 281 279 278 280 280 279 278 277 276 274 274 275 274 274
287 289 289 289 289 288 288 288 287 287 286 285 285 286 287 288 288 288 287 286 285 285 284 284 284 283 283 282 281 280 280 279 278 278 276 275 275 275 273 273 271 270 272
287 287 288 288 288 287 288 287 287 286 285 285 285 285 286 286 285 285 285 285 285 285 285 284 283 283 281 280 279 279 277 275 276 276 274 274 274 274 271 270 271 271 272
287 287 287 288 288 288 288 287 287 287 286 285 286 286 286 286 286 285 285 285 285 284 284 284 282 281 280 279 278 278 277 276 275 274 273 272 272 271 271 272 270 269 269
287 287 287 288 288 287 288 288 288 287 287 286 286 285 287 286 286 286 285 285 285 285 284 283 281 279 279 278 278 278 276 275 272 272 271 269 270 269 269 269 269 268 267
287 287 287 288 288 288 287 287 287 287 287 287 286 285 285 285 286 286 285 285 282 281 281 280 279 277 277 278 278 278 276 274 273 271 269 269 269 268 269 268 268 268 267
287 287 287 287 288 288 287 287 287 287 287 287 286 286 285 286 285 285 283 280 279 279 278 278 278 276 275 275 276 275 275 273 271 270 270 269 268 268 269 267 267 266 265
287 287 287 287 287 287 287 287 287 287 287 287 286 286 286 286 284 282 280 278 277 276 276 276 276 275 273 272 272 271 270 269 269 269 269 268 267 267 266 266 265 265 264
287 287 287 287 287 287 287 287 287 287 286 286 286 286 286 283 281 279 277 276 275 274 273 273 273 272 271 271 270 269 268 268 267 268 268 267 266 265 266 264 264 264 263
Wind_Speed
7 6 5 5 5 4 4 4 5 4 5 5 5 5 4 5 4 3 6 8 7 8 6 8 8 8 5 5 3 3 5 3 5 3 3 3 3 5 4 5 5 6 6
7 6 6 5 5 4 4 4 4 5 3 4 5 6 4 2 3 2 6 7 8 9 8 8 9 6 7 5 3 5 5 4 4 6 2 3 3 5 4 5 4 3 4
7 7 7 6 5 5 4 4 4 5 5 4 4 4 4 3 3 2 7 6 8 9 9 9 9 9 7 5 5 4 3 3 3 6 4 2 2 2 3 3 3 5 5
8 8 7 7 6 5 4 4 4 4 5 4 3 3 4 2 3 4 6 7 7 7 8 8 8 9 9 7 5 5 4 5 5 7 6 3 2 1 2 2 3 4 4
8 8 8 7 6 4 4 3 3 4 2 3 2 3 3 1 3 5 6 6 7 6 7 7 7 6 9 8 6 6 6 5 5 6 5 3 3 3 2 2 4 4 6
9 9 8 8 6 4 3 3 2 2 2 2 1 0 1 1 3 9 8 7 6 7 7 6 7 10 12 14 14 11 5 7 6 4 3 5 4 3 3 3 6 3 3
9 8 8 7 6 4 4 3 3 3 2 2 3 2 2 2 7 10 11 6 6 6 7 7 7 6 10 12 15 15 13 14 8 3 8 4 5 4 6 4 3 3 3
10 10 9 8 5 4 4 4 4 3 3 2 3 4 3 3 8 12 12 8 7 6 5 6 9 8 8 11 11 12 12 11 7 6 9 7 8 6 5 5 7 7 6
10 11 10 9 6 5 5 5 3 4 4 2 3 4 5 4 7 10 13 8 7 6 5 6 8 9 11 15 13 13 11 10 14 21 20 17 16 13 10 9 6 5 3
10 9 8 8 8 7 5 4 2 2 5 3 4 4 4 6 7 8 9 8 8 5 6 8 10 10 13 13 11 11 11 6 6 6 8 12 12 13 14 6 4 3 5
7 6 7 7 7 6 6 3 4 5 5 5 5 4 4 4 6 9 9 6 8 7 6 6 5 14 14 13 10 7 7 10 11 8 7 7 7 8 8 8 8 5 5
7 7 7 5 4 5 7 4 5 6 6 5 6 4 3 3 6 10 10 11 11 10 7 6 7 14 14 15 11 20 20 12 6 6 7 7 7 8 8 10 12 11 10
8 7 7 5 4 5 8 7 6 5 6 6 5 5 4 2 5 14 16 16 13 9 7 11 16 16 18 15 19 18 9 6 7 7 7 7 6 8 9 10 11 15 13
8 8 6 7 6 5 4 6 7 7 6 6 6 6 6 3 5 5 8 10 16 13 16 9 10 12 13 12 8 6 4 4 5 7 8 8 7 6 6 6 8 9 9
6 7 6 5 7 6 4 5 6 3 5 8 7 8 10 8 6 9 10 10 10 11 12 7 6 5 6 6 5 5 5 5 6 7 8 7 7 7 6 5 4 5 7
7 6 6 6 5 5 6 4 6 6 6 8 8 4 1 9 18 16 14 16 19 22 4 8 7 7 7 6 6 6 4 6 6 6 6 7 7 6 6 5 5 8 9
7 7 6 7 7 7 6 7 7 3 8 10 11 10 5 14 18 19 18 18 19 5 4 6 7 6 6 6 7 6 6 5 5 6 6 6 6 6 6 5 6 8 8
7 8 7 6 7 7 7 7 7 8 8 5 8 10 13 18 18 18 21 18 6 1 3 6 7 7 7 7 7 7 7 7 6 7 7 6 6 7 7 6 6 7 8
7 7 8 7 6 7 7 7 7 7 6 6 6 5 13 17 16 17 22 2 8 7 6 6 6 6 7 7 7 7 8 8 8 7 7 6 6 6 7 6 6 6 7
8 9 9 8 8 7 7 8 8 7 8 8 8 7 10 12 11 10 8 4 5 5 7 8 8 7 7 8 8 8 8 8 7 7 7 6 6 6 7 7 7 7 6
7 7 11 7 8 9 8 9 9 8 9 9 9 11 18 12 14 13 10 8 7 7 8 8 8 8 8 8 8 8 8 7 6 7 7 7 7 7 7 6 7 7 8
7 8 9 10 8 9 9 9 9 9 10 9 8 10 21 6 7 8 9 8 7 6 6 8 8 8 8 9 9 9 9 8 8 7 7 7 7 8 7 7 8 7 8
8 9 10 10 10 10 9 9 10 10 10 10 9 10 11 9 9 9 9 8 7 6 6 7 7 7 7 7 7 7 10 9 8 8 9 8 7 8 7 8 8 7 6
10 11 11 11 10 11 11 11 10 12 11 11 11 11 12 11 10 11 9 9 8 7 6 6 7 11 10 8 7 6 6 7 8 9 11 10 8 8 7 7 7 7 7
10 11 11 12 11 12 11 12 11 11 11 11 12 11 12 11 10 9 9 9 9 9 8 7 6 11 12 13 11 11 11 14 12 12 8 9 11 10 8 7 8 8 8
11 12 12 11 11 12 12 12 13 13 12 11 11 12 12 12 11 10 10 11 9 9 10 8 10 13 14 11 11 14 16 16 14 14 10 9 9 8 7 9 11 7 8
Wind_Direction
197 180 192 203 208 185 245 282 285 290 305 304 312 312 338 321 324 313 136 137 116 113 108 117 118 124 119 121 112 99 100 96 110 97 85 117 115 119 93 86 91 96 85
197 187 188 204 213 213 229 255 278 283 265 280 298 306 306 305 314 54 126 147 133 126 124 129 129 128 137 132 109 103 101 78 111 123 116 124 112 117 107 93 84 49 86
194 197 183 195 218 232 221 254 262 274 266 242 254 270 271 304 311 78 124 118 135 139 142 140 137 139 134 147 136 121 94 85 83 135 122 113 105 106 91 86 72 70 57
195 202 192 190 210 223 245 262 267 254 271 255 220 253 261 284 268 125 113 124 115 125 130 141 143 153 151 141 132 118 106 98 110 113 113 113 108 106 100 119 105 53 53
199 203 196 193 198 225 237 225 250 236 232 251 208 212 276 328 130 125 131 120 116 105 122 125 139 104 117 127 133 124 124 115 110 122 130 129 137 157 175 128 89 94 56
197 209 195 187 184 213 212 197 202 169 122 156 163 279 134 115 139 132 137 126 118 122 114 93 97 103 91 92 87 81 105 137 141 135 144 135 120 112 115 116 124 156 130
195 206 202 191 182 179 204 175 151 127 134 140 114 93 91 107 128 121 111 109 114 112 117 116 94 92 102 101 89 81 63 53 50 140 128 114 134 142 124 146 153 90 96
192 196 198 191 186 167 197 167 146 117 117 117 97 101 86 66 101 110 100 99 84 72 82 111 120 117 122 118 104 84 70 54 43 80 93 91 100 122 104 103 118 105 101
194 195 189 189 179 173 189 167 149 130 108 71 80 96 102 75 89 117 111 99 90 77 74 81 110 117 129 125 110 103 90 79 69 81 84 81 68 60 94 114 123 126 110
193 190 182 177 178 187 167 159 122 104 111 102 81 76 86 114 122 117 120 124 116 111 91 88 94 123 120 123 120 127 118 122 111 84 76 68 67 61 49 60 138 133 122
157 165 180 182 177 171 145 143 130 120 115 115 96 59 65 82 121 126 131 130 134 125 120 111 107 115 117 121 121 127 122 128 111 98 93 84 67 61 56 56 49 77 118
158 165 163 183 167 151 146 131 125 135 133 128 120 97 57 74 103 102 108 117 130 127 120 113 119 121 126 123 111 122 125 122 116 107 97 88 88 84 75 70 70 67 55
158 167 164 156 159 161 149 148 142 151 157 152 142 128 103 18 92 104 105 104 103 106 114 116 117 113 109 104 119 123 119 115 121 109 108 108 103 105 107 93 90 83 69
168 164 164 159 164 153 148 157 160 164 166 163 149 145 134 134 126 126 116 108 103 104 107 102 105 97 94 103 101 86 82 96 115 119 121 120 123 119 104 114 103 102 84
174 161 172 162 174 160 163 178 179 177 182 176 174 161 155 163 179 156 149 144 140 135 123 112 113 111 112 112 105 107 115 114 111 125 130 136 132 127 106 99 93 92 104
174 170 181 165 169 165 157 123 95 122 126 110 121 162 79 113 149 154 149 142 143 143 123 143 140 140 141 142 136 123 115 123 125 131 136 140 136 129 118 109 126 119 123
198 171 186 174 173 169 171 166 151 99 140 149 141 134 137 147 149 149 145 144 149 139 132 146 144 148 142 143 145 147 143 133 132 137 136 133 129 114 119 133 132 126 129
204 182 179 197 180 176 180 182 171 170 165 165 172 154 152 152 153 154 149 141 153 111 144 150 142 146 153 155 151 144 140 150 145 141 140 135 131 137 141 147 143 137 133
202 204 187 180 192 183 179 181 179 172 161 150 133 133 154 152 150 158 161 168 168 159 154 144 149 159 161 158 153 153 157 157 153 147 140 142 144 144 139 134 123 117 124
208 211 206 190 172 185 186 183 179 176 170 166 163 162 157 146 155 171 188 183 168 160 158 153 163 160 161 162 156 153 149 154 150 139 137 139 142 144 134 136 143 136 119
207 204 198 197 191 188 191 191 187 179 179 180 175 170 179 176 172 175 178 183 180 171 167 161 162 163 161 162 157 156 155 152 153 143 147 146 144 140 144 134 122 118 121
206 207 206 204 195 187 195 193 187 185 183 181 175 172 180 193 177 175 175 176 174 169 165 161 164 164 162 167 164 156 154 157 157 155 143 134 142 139 144 142 137 129 128
209 210 207 210 200 193 190 194 190 188 187 182 172 169 178 188 181 179 176 163 157 158 157 161 156 154 155 154 165 163 159 162 159 150 144 144 148 151 153 147 142 136 134
206 211 210 208 208 199 195 194 190 191 187 183 176 177 182 186 186 180 168 154 151 157 161 158 165 160 154 148 149 150 143 135 136 148 146 147 145 151 146 139 139 127 123
210 209 211 209 207 204 200 189 191 188 190 188 184 182 182 181 176 171 165 156 152 151 156 155 155 156 153 150 149 149 145 144 140 141 138 139 143 149 140 131 134 131 126
215 214 213 211 208 208 203 201 189 187 188 188 189 185 181 178 173 167 163 158 155 150 149 151 151 148 149 148 145 142 145 146 140 140 138 137 140 138 134 131 134 131 136